Location: Mountain View
(37.3861°N, 122.0839°W)
Time: 08:56:07
(UTC-07:00)

Envisat - Visible Passes

Search period start: 23 August 2017 00:00
Search period end: 02 September 2017 00:00
Orbit: 764 x 766 km, 98.2° (Epoch: 23 August)

Date Brightness Start Highest point End Pass type
(mag) Time Alt. Az. Time Alt. Az. Time Alt. Az.
23 Aug 2.9 21:00:41 10° SSE 21:05:45 88° ENE 21:10:52 10° NNW visible
24 Aug 3.6 20:24:31 10° SE 20:29:11 38° ENE 20:33:52 10° N visible
24 Aug 5.1 22:04:23 10° SW 22:08:16 22° W 22:12:11 10° NW visible
25 Aug 3.7 21:26:28 10° S 21:31:23 51° W 21:36:20 10° NNW visible
26 Aug 3.0 20:49:39 10° SSE 20:54:41 69° ENE 20:59:44 10° N visible
26 Aug 5.7 22:32:20 10° WSW 22:34:08 12° W 22:35:57 10° WNW visible
27 Aug 3.9 20:13:47 10° SE 20:18:10 30° ENE 20:22:34 10° N visible
27 Aug 4.8 21:52:47 10° SSW 21:57:06 28° W 22:01:27 10° NW visible
28 Aug 3.3 21:15:21 11° S 21:20:16 66° W 21:25:20 10° NNW visible
29 Aug 3.1 20:38:42 10° SSE 20:43:37 54° ENE 20:48:34 10° N visible
29 Aug 5.6 22:19:58 10° SW 22:22:56 15° W 22:25:54 10° NW visible
30 Aug 4.2 20:03:09 10° ESE 20:07:10 24° ENE 20:11:12 10° NNE visible
30 Aug 4.4 21:41:30 11° SSW 21:45:57 36° W 21:50:37 10° NNW visible
31 Aug 3.0 21:04:28 12° SSE 21:09:10 84° WSW 21:14:17 10° NNW visible
01 Sep 3.4 20:27:50 10° SE 20:32:34 42° ENE 20:37:21 10° N visible
01 Sep 5.3 22:08:04 10° SW 22:11:44 20° W 22:15:25 10° NW visible
